Back to catalog

HULIANWANG DIGUI-130

AliveCommunicationsLEO
NORAD 67238·PAYLOAD·🇨🇳 China

Launched Dec 25, 2025 from Wenchang Space Launch Site

Loading…

Next Passes (next 24 hours)

TLE

FreshSource: Space-Track

Epoch: Sep 14, 2026, 02:34 UTC

1 67238U 25311C   26257.10752810 -.00000075  00000-0  10491-3 0  9995
2 67238  50.0048 157.1068 0000291 300.2503  59.8340 13.29326882 35166

Track HULIANWANG DIGUI-130 in real time with AllMySat

Download on the App Store